KUG3 WMKK-WIHH

Flight info

Callsign KUG3
Flight time 1h 36m
Altitude 39000
Route MITOS1A MITOS DCT PARDI DCT TODAK DCT BOSLO
Aircraft A346/H-SDE2E3FGHIJ3J4J5M1RWXY/LB1D1

Departure

Time 2026-05-07 04:05
Airport Kuala Lumpur International Airport (WMKK)

Arrival

Time 2026-05-07 05:42
Airport Halim Perdanakusuma International Airport (WIHH)
Time Latitude Longitude Altitude Speed Heading
2026-05-07 03:21 2.74966 101.70460 81 ft 0 kts 146°
2026-05-07 03:52 2.74977 101.70452 87 ft 4 kts 146°
2026-05-07 03:52 2.74997 101.70441 84 ft 4 kts 162°
2026-05-07 03:52 2.75015 101.70439 84 ft 4 kts 199°
2026-05-07 03:53 2.75032 101.70451 87 ft 4 kts 231°
2026-05-07 03:53 2.75047 101.70473 85 ft 4 kts 237°
2026-05-07 03:53 2.75055 101.70484 87 ft 1 kts 236°
2026-05-07 03:53 2.75055 101.70485 81 ft 0 kts 236°
2026-05-07 04:00 2.75047 101.70473 85 ft 3 kts 236°
2026-05-07 04:01 2.75028 101.70445 86 ft 6 kts 236°
2026-05-07 04:01 2.74998 101.70399 84 ft 9 kts 236°
2026-05-07 04:01 2.74956 101.70336 84 ft 12 kts 236°
2026-05-07 04:01 2.74905 101.70259 85 ft 14 kts 236°
2026-05-07 04:02 2.74846 101.70169 84 ft 17 kts 236°
2026-05-07 04:02 2.74776 101.70065 84 ft 19 kts 234°
2026-05-07 04:02 2.74681 101.69942 62 ft 21 kts 214°
2026-05-07 04:02 2.74547 101.69982 65 ft 19 kts 169°
2026-05-07 04:03 2.74485 101.69951 62 ft 0 kts 226°
2026-05-07 04:03 2.74478 101.69943 60 ft 3 kts 226°
2026-05-07 04:03 2.74458 101.69922 65 ft 5 kts 226°
2026-05-07 04:03 2.74427 101.69890 62 ft 7 kts 226°
2026-05-07 04:04 2.74393 101.69846 64 ft 9 kts 243°
2026-05-07 04:04 2.74351 101.69792 64 ft 10 kts 192°
2026-05-07 04:04 2.74280 101.69826 65 ft 13 kts 147°
2026-05-07 04:04 2.74185 101.69888 60 ft 30 kts 147°
2026-05-07 04:05 2.73791 101.70147 58 ft 106 kts 146°
2026-05-07 04:05 2.72964 101.70713 56 ft 178 kts 146°
2026-05-07 04:05 2.71832 101.71453 623 ft 194 kts 148°
2026-05-07 04:05 2.70698 101.72140 1663 ft 190 kts 150°
2026-05-07 04:06 2.69514 101.72828 2486 ft 201 kts 147°
2026-05-07 04:06 2.68318 101.73631 3055 ft 216 kts 142°
2026-05-07 04:06 2.67047 101.74550 3514 ft 235 kts 143°
2026-05-07 04:06 2.65671 101.75528 4113 ft 249 kts 144°
2026-05-07 04:07 2.64197 101.76547 4700 ft 263 kts 144°
2026-05-07 04:07 2.62658 101.77592 5499 ft 268 kts 144°
2026-05-07 04:07 2.61106 101.78641 6397 ft 270 kts 145°
2026-05-07 04:07 2.59535 101.79701 7142 ft 275 kts 146°
2026-05-07 04:08 2.57938 101.80772 7887 ft 279 kts 145°
2026-05-07 04:08 2.56317 101.81857 8653 ft 282 kts 145°
2026-05-07 04:08 2.54675 101.82959 9415 ft 285 kts 145°
2026-05-07 04:08 2.53580 101.83694 9880 ft 287 kts 145°
2026-05-07 04:09 2.51917 101.84838 10460 ft 295 kts 143°
2026-05-07 04:09 2.50194 101.86059 10804 ft 312 kts 143°
2026-05-07 04:09 2.48378 101.87350 11095 ft 329 kts 143°
2026-05-07 04:09 2.46458 101.88710 11391 ft 346 kts 143°
2026-05-07 04:10 2.44441 101.90137 11672 ft 363 kts 143°
2026-05-07 04:10 2.42333 101.91625 11949 ft 378 kts 143°
2026-05-07 04:10 2.40148 101.93166 12424 ft 387 kts 143°
2026-05-07 04:10 2.37936 101.94725 13109 ft 390 kts 143°
2026-05-07 04:11 2.35738 101.96275 13757 ft 393 kts 143°
2026-05-07 04:11 2.33494 101.97859 14317 ft 397 kts 143°
2026-05-07 04:11 2.31157 101.99364 14851 ft 402 kts 148°
2026-05-07 04:11 2.28629 102.00629 15405 ft 407 kts 154°
2026-05-07 04:12 2.25948 102.01621 15965 ft 412 kts 160°
2026-05-07 04:12 2.23193 102.02476 16508 ft 416 kts 161°
2026-05-07 04:12 2.20410 102.03310 17029 ft 420 kts 161°
2026-05-07 04:12 2.17590 102.04153 17543 ft 424 kts 161°
2026-05-07 04:13 2.14757 102.05005 18064 ft 427 kts 161°
2026-05-07 04:13 2.11898 102.05869 18497 ft 431 kts 161°
2026-05-07 04:13 2.09018 102.06743 18944 ft 434 kts 161°
2026-05-07 04:13 2.06121 102.07623 19386 ft 437 kts 161°
2026-05-07 04:14 2.03199 102.08512 19828 ft 439 kts 161°
2026-05-07 04:14 2.00294 102.09472 20250 ft 441 kts 156°
2026-05-07 04:14 1.97517 102.10770 20681 ft 442 kts 149°
2026-05-07 04:14 1.94913 102.12424 21103 ft 443 kts 142°
2026-05-07 04:15 1.92495 102.14343 21530 ft 445 kts 139°
2026-05-07 04:15 1.90108 102.16334 21947 ft 448 kts 138°
2026-05-07 04:15 1.87713 102.18349 22348 ft 451 kts 138°
2026-05-07 04:15 1.85301 102.20376 22738 ft 453 kts 138°
2026-05-07 04:16 1.82970 102.22330 23112 ft 455 kts 138°
2026-05-07 04:16 1.80411 102.24469 23507 ft 458 kts 139°
2026-05-07 04:16 1.77951 102.26523 23815 ft 461 kts 139°
2026-05-07 04:16 1.75481 102.28581 24140 ft 463 kts 139°
2026-05-07 04:17 1.72997 102.30651 24467 ft 465 kts 139°
2026-05-07 04:17 1.70507 102.32724 24792 ft 468 kts 139°
2026-05-07 04:17 1.67996 102.34814 25112 ft 470 kts 139°
2026-05-07 04:17 1.65481 102.36908 25436 ft 472 kts 139°
2026-05-07 04:18 1.62945 102.39019 25754 ft 474 kts 139°
2026-05-07 04:18 1.60404 102.41133 26068 ft 476 kts 139°
2026-05-07 04:18 1.57849 102.43260 26370 ft 479 kts 139°
2026-05-07 04:18 1.55275 102.45403 26670 ft 481 kts 139°
2026-05-07 04:19 1.52700 102.47545 26981 ft 483 kts 139°
2026-05-07 04:19 1.50140 102.49675 27279 ft 486 kts 139°
2026-05-07 04:19 1.47501 102.51871 27585 ft 488 kts 139°
2026-05-07 04:19 1.44916 102.54022 27877 ft 490 kts 139°
2026-05-07 04:20 1.42294 102.56203 28229 ft 491 kts 139°
2026-05-07 04:20 1.39670 102.58386 28679 ft 489 kts 139°
2026-05-07 04:20 1.37051 102.60565 29131 ft 487 kts 139°
2026-05-07 04:21 1.31845 102.64899 30006 ft 486 kts 139°
2026-05-07 04:21 1.29249 102.67060 30366 ft 485 kts 139°
2026-05-07 04:21 1.26642 102.69229 30716 ft 484 kts 139°
2026-05-07 04:21 1.24052 102.71383 31082 ft 483 kts 139°
2026-05-07 04:22 1.21469 102.73533 31440 ft 483 kts 139°
2026-05-07 04:22 1.18923 102.75650 31793 ft 482 kts 139°
2026-05-07 04:22 1.16342 102.77798 32180 ft 481 kts 139°
2026-05-07 04:22 1.13775 102.79934 32540 ft 480 kts 139°
2026-05-07 04:23 1.11202 102.82075 32901 ft 480 kts 139°
2026-05-07 04:23 1.08636 102.84209 33282 ft 479 kts 139°
2026-05-07 04:23 1.06079 102.86335 33671 ft 478 kts 139°
2026-05-07 04:23 1.03521 102.88463 34013 ft 477 kts 139°
2026-05-07 04:24 1.00965 102.90588 34333 ft 476 kts 139°
2026-05-07 04:24 0.98420 102.92704 34658 ft 476 kts 139°
2026-05-07 04:24 0.95873 102.94823 34985 ft 475 kts 139°
2026-05-07 04:24 0.93334 102.96934 35307 ft 474 kts 139°
2026-05-07 04:25 0.90795 102.99045 35628 ft 473 kts 139°
2026-05-07 04:25 0.88308 103.01113 35936 ft 472 kts 139°
2026-05-07 04:25 0.85781 103.03214 36240 ft 472 kts 139°
2026-05-07 04:25 0.83259 103.05311 36554 ft 471 kts 139°
2026-05-07 04:26 0.80735 103.07410 36873 ft 470 kts 139°
2026-05-07 04:26 0.78221 103.09503 37173 ft 470 kts 139°
2026-05-07 04:26 0.75707 103.11595 37452 ft 470 kts 139°
2026-05-07 04:26 0.73188 103.13692 37702 ft 471 kts 139°
2026-05-07 04:27 0.70661 103.15793 37901 ft 473 kts 139°
2026-05-07 04:27 0.68124 103.17902 38106 ft 475 kts 139°
2026-05-07 04:27 0.65579 103.20017 38340 ft 475 kts 139°
2026-05-07 04:27 0.63035 103.22133 38567 ft 476 kts 139°
2026-05-07 04:28 0.60491 103.24252 38750 ft 477 kts 139°
2026-05-07 04:28 0.57935 103.26379 38828 ft 478 kts 139°
2026-05-07 04:28 0.52814 103.30634 38831 ft 478 kts 139°
2026-05-07 04:29 0.47693 103.34892 38836 ft 478 kts 139°
2026-05-07 04:29 0.42574 103.39146 38839 ft 478 kts 139°
2026-05-07 04:30 0.37452 103.43407 38838 ft 478 kts 139°
2026-05-07 04:30 0.32331 103.47662 38839 ft 478 kts 139°
2026-05-07 04:31 0.27239 103.51900 38840 ft 479 kts 139°
2026-05-07 04:31 0.22117 103.56156 38838 ft 479 kts 139°
2026-05-07 04:32 0.16989 103.60420 38836 ft 479 kts 139°
2026-05-07 04:32 0.11870 103.64676 38837 ft 479 kts 139°
2026-05-07 04:33 0.06727 103.68948 38839 ft 479 kts 139°
2026-05-07 04:33 0.01605 103.73208 38839 ft 479 kts 139°
2026-05-07 04:34 -0.03516 103.77467 38842 ft 477 kts 140°
2026-05-07 04:34 -0.08616 103.81706 38839 ft 476 kts 140°
2026-05-07 04:35 -0.13673 103.85904 38842 ft 474 kts 139°
2026-05-07 04:35 -0.18739 103.90124 38842 ft 472 kts 140°
2026-05-07 04:36 -0.23808 103.94336 38841 ft 472 kts 140°
2026-05-07 04:36 -0.28869 103.98543 38840 ft 473 kts 140°
2026-05-07 04:37 -0.33913 104.02735 38841 ft 472 kts 140°
2026-05-07 04:37 -0.38969 104.06935 38842 ft 473 kts 139°
2026-05-07 04:38 -0.44000 104.11120 38843 ft 475 kts 139°
2026-05-07 04:38 -0.49081 104.15346 38840 ft 475 kts 140°
2026-05-07 04:39 -0.54182 104.19561 38840 ft 476 kts 141°
2026-05-07 04:39 -0.59573 104.23382 38843 ft 473 kts 147°
2026-05-07 04:40 -0.65193 104.26777 38841 ft 471 kts 148°
2026-05-07 04:40 -0.70823 104.30137 38841 ft 471 kts 148°
2026-05-07 04:41 -0.76453 104.33501 38837 ft 472 kts 148°
2026-05-07 04:41 -0.82053 104.36852 38840 ft 472 kts 148°
2026-05-07 04:42 -0.87695 104.40231 38836 ft 472 kts 148°
2026-05-07 04:42 -0.93336 104.43609 38839 ft 473 kts 148°
2026-05-07 04:43 -0.98988 104.46993 38841 ft 473 kts 148°
2026-05-07 04:43 -1.04629 104.50372 38840 ft 473 kts 148°
2026-05-07 04:44 -1.10276 104.53754 38839 ft 473 kts 148°
2026-05-07 04:44 -1.15936 104.57144 38837 ft 474 kts 148°
2026-05-07 04:45 -1.21597 104.60534 38838 ft 474 kts 148°
2026-05-07 04:45 -1.27257 104.63923 38836 ft 474 kts 148°
2026-05-07 04:46 -1.32875 104.67290 38838 ft 474 kts 148°
2026-05-07 04:46 -1.38536 104.70682 38840 ft 474 kts 148°
2026-05-07 04:47 -1.44190 104.74067 38840 ft 473 kts 148°
2026-05-07 04:47 -1.49845 104.77458 38840 ft 474 kts 148°
2026-05-07 04:48 -1.55518 104.80855 38840 ft 474 kts 148°
2026-05-07 04:48 -1.61182 104.84250 38839 ft 475 kts 148°
2026-05-07 04:49 -1.66865 104.87652 38839 ft 475 kts 148°
2026-05-07 04:49 -1.72536 104.91052 38840 ft 475 kts 148°
2026-05-07 04:50 -1.78224 104.94454 38831 ft 478 kts 148°
2026-05-07 04:50 -1.83930 104.97876 38835 ft 479 kts 148°
2026-05-07 04:51 -1.89621 105.01294 38838 ft 479 kts 148°
2026-05-07 04:51 -1.95342 105.04723 38840 ft 479 kts 148°
2026-05-07 04:52 -2.01055 105.08146 38834 ft 479 kts 148°
2026-05-07 04:52 -2.06773 105.11573 38835 ft 479 kts 148°
2026-05-07 04:53 -2.12491 105.15003 38837 ft 479 kts 148°
2026-05-07 04:53 -2.18208 105.18432 38835 ft 479 kts 148°
2026-05-07 04:54 -2.23921 105.21858 38837 ft 477 kts 148°
2026-05-07 04:54 -2.28643 105.24693 38836 ft 476 kts 148°
2026-05-07 04:55 -2.34334 105.28102 38836 ft 476 kts 148°
2026-05-07 04:55 -2.40024 105.31523 38837 ft 478 kts 149°
2026-05-07 04:56 -2.45739 105.34946 38837 ft 479 kts 149°
2026-05-07 04:56 -2.51342 105.38565 38840 ft 479 kts 144°
2026-05-07 04:57 -2.56542 105.42748 38839 ft 479 kts 138°
2026-05-07 04:57 -2.61481 105.47215 38840 ft 476 kts 136°
2026-05-07 04:58 -2.66340 105.51649 38842 ft 475 kts 137°
2026-05-07 04:58 -2.71250 105.56126 38842 ft 476 kts 137°
2026-05-07 04:59 -2.76152 105.60581 38843 ft 475 kts 136°
2026-05-07 04:59 -2.81059 105.65046 38844 ft 477 kts 136°
2026-05-07 05:00 -2.85976 105.69506 38841 ft 477 kts 136°
2026-05-07 05:00 -2.90887 105.73974 38841 ft 477 kts 136°
2026-05-07 05:01 -2.95804 105.78457 38844 ft 478 kts 137°
2026-05-07 05:01 -3.00719 105.82924 38842 ft 480 kts 137°
2026-05-07 05:02 -3.05675 105.87423 38843 ft 481 kts 137°
2026-05-07 05:02 -3.10629 105.91927 38842 ft 481 kts 137°
2026-05-07 05:03 -3.15582 105.96433 38840 ft 481 kts 137°
2026-05-07 05:03 -3.20538 106.00942 38844 ft 479 kts 137°
2026-05-07 05:04 -3.25461 106.05420 38842 ft 476 kts 137°
2026-05-07 05:04 -3.30364 106.09881 38840 ft 475 kts 137°
2026-05-07 05:05 -3.35258 106.14339 38838 ft 476 kts 137°
2026-05-07 05:05 -3.40149 106.18795 38841 ft 477 kts 137°
2026-05-07 05:06 -3.45054 106.23258 38844 ft 476 kts 137°
2026-05-07 05:06 -3.49967 106.27731 38844 ft 476 kts 137°
2026-05-07 05:07 -3.54866 106.32196 38842 ft 476 kts 137°
2026-05-07 05:07 -3.59776 106.36644 38841 ft 475 kts 137°
2026-05-07 05:08 -3.64977 106.40755 38841 ft 477 kts 143°
2026-05-07 05:08 -3.70523 106.44491 38843 ft 482 kts 146°
2026-05-07 05:09 -3.76119 106.48178 38838 ft 482 kts 146°
2026-05-07 05:09 -3.81725 106.51880 38840 ft 481 kts 146°
2026-05-07 05:10 -3.87316 106.55577 38839 ft 482 kts 146°
2026-05-07 05:10 -3.92920 106.59287 38840 ft 483 kts 146°
2026-05-07 05:11 -3.98515 106.62993 38839 ft 482 kts 146°
2026-05-07 05:11 -4.04082 106.66680 38838 ft 484 kts 146°
2026-05-07 05:12 -4.09726 106.70419 38841 ft 487 kts 146°
2026-05-07 05:12 -4.15371 106.74152 38838 ft 484 kts 146°
2026-05-07 05:13 -4.20987 106.77878 38838 ft 483 kts 146°
2026-05-07 05:13 -4.26607 106.81599 38838 ft 484 kts 145°
2026-05-07 05:14 -4.32184 106.85308 38836 ft 483 kts 146°
2026-05-07 05:14 -4.34999 106.87173 38659 ft 484 kts 145°
2026-05-07 05:14 -4.37803 106.89034 38418 ft 482 kts 146°
2026-05-07 05:15 -4.40590 106.90883 38147 ft 481 kts 146°
2026-05-07 05:15 -4.43374 106.92729 37876 ft 478 kts 145°
2026-05-07 05:15 -4.46158 106.94570 37617 ft 478 kts 145°
2026-05-07 05:15 -4.48930 106.96411 37364 ft 478 kts 146°
2026-05-07 05:16 -4.51724 106.98267 37098 ft 477 kts 146°
2026-05-07 05:16 -4.54494 107.00098 36817 ft 479 kts 146°
2026-05-07 05:16 -4.57328 107.01860 36447 ft 481 kts 149°
2026-05-07 05:16 -4.60283 107.03472 35893 ft 483 kts 152°
2026-05-07 05:17 -4.63337 107.04911 35219 ft 486 kts 156°
2026-05-07 05:17 -4.66490 107.06166 34609 ft 488 kts 159°
2026-05-07 05:17 -4.69718 107.07234 33975 ft 490 kts 163°
2026-05-07 05:17 -4.73025 107.08105 33323 ft 492 kts 166°
2026-05-07 05:18 -4.76376 107.08830 32652 ft 493 kts 167°
2026-05-07 05:18 -4.79736 107.09528 32043 ft 492 kts 168°
2026-05-07 05:18 -4.83091 107.10223 31456 ft 491 kts 167°
2026-05-07 05:18 -4.86438 107.10919 30864 ft 491 kts 166°
2026-05-07 05:19 -4.89731 107.11604 30300 ft 490 kts 167°
2026-05-07 05:19 -4.93066 107.12299 29656 ft 490 kts 166°
2026-05-07 05:19 -4.96401 107.12994 28896 ft 490 kts 168°
2026-05-07 05:19 -4.99814 107.13289 27709 ft 497 kts 177°
2026-05-07 05:20 -5.03276 107.13293 26717 ft 501 kts 179°
2026-05-07 05:20 -5.06711 107.13247 26078 ft 487 kts 179°
2026-05-07 05:20 -5.10063 107.13205 25206 ft 479 kts 179°
2026-05-07 05:20 -5.13375 107.13171 24319 ft 472 kts 178°
2026-05-07 05:21 -5.16643 107.13150 23435 ft 466 kts 178°
2026-05-07 05:21 -5.22978 107.13139 22275 ft 443 kts 178°
2026-05-07 05:21 -5.26034 107.13136 21821 ft 436 kts 178°
2026-05-07 05:22 -5.29045 107.13141 21399 ft 429 kts 178°
2026-05-07 05:22 -5.32016 107.13148 20983 ft 425 kts 178°
2026-05-07 05:22 -5.34951 107.13152 20566 ft 420 kts 178°
2026-05-07 05:22 -5.37869 107.13157 20136 ft 417 kts 178°
2026-05-07 05:23 -5.40764 107.13167 19726 ft 413 kts 178°
2026-05-07 05:23 -5.43632 107.13174 19318 ft 410 kts 177°
2026-05-07 05:23 -5.46441 107.13177 18941 ft 410 kts 178°
2026-05-07 05:23 -5.49294 107.13186 18488 ft 409 kts 178°
2026-05-07 05:24 -5.52135 107.13194 18031 ft 408 kts 178°
2026-05-07 05:24 -5.54971 107.13203 17544 ft 406 kts 178°
2026-05-07 05:24 -5.57790 107.13208 17099 ft 403 kts 178°
2026-05-07 05:24 -5.60588 107.13215 16672 ft 400 kts 178°
2026-05-07 05:25 -5.63361 107.13222 16238 ft 397 kts 178°
2026-05-07 05:25 -5.66117 107.13227 15820 ft 395 kts 178°
2026-05-07 05:25 -5.68854 107.13232 15396 ft 392 kts 178°
2026-05-07 05:25 -5.71582 107.13237 14972 ft 390 kts 178°
2026-05-07 05:26 -5.74286 107.13245 14544 ft 388 kts 178°
2026-05-07 05:26 -5.76983 107.13250 14133 ft 386 kts 178°
2026-05-07 05:26 -5.79666 107.13255 13711 ft 384 kts 178°
2026-05-07 05:26 -5.82330 107.13260 13230 ft 382 kts 179°
2026-05-07 05:27 -5.84987 107.13268 12791 ft 379 kts 178°
2026-05-07 05:27 -5.87614 107.13275 12367 ft 376 kts 178°
2026-05-07 05:27 -5.90224 107.13276 11948 ft 373 kts 178°
2026-05-07 05:27 -5.92813 107.13280 11512 ft 371 kts 178°
2026-05-07 05:28 -5.95384 107.13289 11100 ft 368 kts 178°
2026-05-07 05:28 -5.97951 107.13295 10778 ft 361 kts 178°
2026-05-07 05:28 -6.00412 107.13299 10678 ft 347 kts 178°
2026-05-07 05:28 -6.02789 107.13302 10554 ft 335 kts 178°
2026-05-07 05:29 -6.05076 107.13306 10436 ft 323 kts 178°
2026-05-07 05:29 -6.07282 107.13313 10325 ft 311 kts 178°
2026-05-07 05:29 -6.09408 107.13320 10214 ft 299 kts 178°
2026-05-07 05:29 -6.11452 107.13321 10132 ft 288 kts 177°
2026-05-07 05:30 -6.13422 107.13325 10046 ft 281 kts 178°
2026-05-07 05:30 -6.15342 107.13330 9937 ft 278 kts 177°
2026-05-07 05:30 -6.17293 107.13338 9591 ft 279 kts 177°
2026-05-07 05:30 -6.19234 107.13349 9262 ft 279 kts 178°
2026-05-07 05:31 -6.21173 107.13353 8977 ft 277 kts 178°
2026-05-07 05:31 -6.23101 107.13357 8687 ft 275 kts 178°
2026-05-07 05:31 -6.25008 107.13358 8399 ft 274 kts 178°
2026-05-07 05:31 -6.26913 107.13362 8101 ft 273 kts 178°
2026-05-07 05:32 -6.28790 107.13118 7758 ft 276 kts 200°
2026-05-07 05:32 -6.30374 107.12042 7440 ft 278 kts 227°
2026-05-07 05:32 -6.31459 107.10430 7167 ft 278 kts 237°
2026-05-07 05:32 -6.32445 107.08758 6889 ft 277 kts 238°
2026-05-07 05:33 -6.33437 107.07078 6601 ft 277 kts 237°
2026-05-07 05:33 -6.34418 107.05440 6310 ft 276 kts 237°
2026-05-07 05:33 -6.35419 107.03796 6018 ft 275 kts 237°
2026-05-07 05:33 -6.36423 107.02158 5713 ft 274 kts 237°
2026-05-07 05:34 -6.37421 107.00530 5426 ft 273 kts 237°
2026-05-07 05:34 -6.38423 106.98894 5145 ft 272 kts 237°
2026-05-07 05:34 -6.39403 106.97299 4996 ft 264 kts 237°
2026-05-07 05:34 -6.40259 106.95717 4978 ft 253 kts 247°
2026-05-07 05:35 -6.40765 106.94003 5005 ft 259 kts 257°
2026-05-07 05:35 -6.41104 106.92217 5003 ft 259 kts 259°
2026-05-07 05:35 -6.41416 106.90415 5012 ft 260 kts 259°
2026-05-07 05:35 -6.41732 106.88613 5011 ft 260 kts 259°
2026-05-07 05:36 -6.42054 106.86819 5001 ft 261 kts 258°
2026-05-07 05:36 -6.42386 106.85019 4994 ft 261 kts 258°
2026-05-07 05:36 -6.42720 106.83218 4757 ft 263 kts 258°
2026-05-07 05:36 -6.43058 106.81403 4437 ft 263 kts 258°
2026-05-07 05:37 -6.43212 106.79607 4309 ft 253 kts 282°
2026-05-07 05:37 -6.42438 106.78108 4179 ft 243 kts 320°
2026-05-07 05:37 -6.40978 106.77271 3907 ft 239 kts 340°
2026-05-07 05:37 -6.39952 106.76881 3726 ft 238 kts 341°
2026-05-07 05:38 -6.37885 106.76100 3357 ft 236 kts 340°
2026-05-07 05:38 -6.36461 106.75517 3126 ft 234 kts 339°
2026-05-07 05:38 -6.35407 106.75061 2997 ft 230 kts 338°
2026-05-07 05:38 -6.33991 106.74516 2987 ft 222 kts 354°
2026-05-07 05:39 -6.32553 106.74778 2975 ft 217 kts 37°
2026-05-07 05:39 -6.31659 106.75977 2998 ft 212 kts 73°
2026-05-07 05:39 -6.31294 106.77397 2694 ft 212 kts 74°
2026-05-07 05:39 -6.30863 106.78845 2024 ft 218 kts 72°
2026-05-07 05:40 -6.30429 106.80251 1786 ft 199 kts 73°
2026-05-07 05:40 -6.30044 106.81517 1737 ft 180 kts 71°
2026-05-07 05:40 -6.29601 106.82628 1594 ft 165 kts 67°
2026-05-07 05:40 -6.29171 106.83689 1226 ft 162 kts 69°
2026-05-07 05:41 -6.28772 106.84740 832 ft 158 kts 68°
2026-05-07 05:41 -6.28343 106.85751 634 ft 154 kts 67°
2026-05-07 05:41 -6.27860 106.86711 387 ft 155 kts 60°
2026-05-07 05:41 -6.27349 106.87627 163 ft 151 kts 65°
2026-05-07 05:42 -6.26925 106.88534 102 ft 118 kts 66°
2026-05-07 05:42 -6.26674 106.89080 104 ft 55 kts 65°
2026-05-07 05:42 -6.26566 106.89316 103 ft 33 kts 65°
2026-05-07 05:42 -6.26473 106.89522 103 ft 32 kts 65°
2026-05-07 05:43 -6.26387 106.89715 103 ft 23 kts 64°
2026-05-07 05:43 -6.26348 106.89774 104 ft 8 kts 29°
2026-05-07 05:43 -6.26306 106.89790 105 ft 0 kts
2026-05-07 05:43 -6.26299 106.89791 105 ft 2 kts
2026-05-07 05:44 -6.26270 106.89789 102 ft 6 kts 347°
2026-05-07 05:44 -6.26220 106.89779 104 ft 9 kts
2026-05-07 05:44 -6.26178 106.89786 103 ft 4 kts 19°
2026-05-07 05:44 -6.26157 106.89794 104 ft 0 kts 22°
2026-05-07 05:45 -6.26150 106.89797 103 ft 0 kts 22°